Location: Unspecified
(50.7693°N, 0.0000°E)
Time: 16:59:10
(UTC+00:00)

Transit 2A - Pass Details

Date: 02 July 2019
Orbit: 594 x 965 km, 66.7° (Epoch: 17 July)

Event Time Altitude Azimuth Distance (km) Brightness Sun altitude
Rises 01:39:37 0° 287° (WNW) 3,624 9.4 -13.2°
Reaches altitude 10° 01:43:08 10° 306° (NW) 2,641 8.9 -13.0°
Maximum altitude 01:47:16 18° 348° (NNW) 2,051 9.0 -12.7°
Drops below altitude 10° 01:51:13 10° 31° (NNE) 2,504 10.2 -12.5°
Sets 01:54:26 0° 50° (NE) 3,367 10.7 -12.2°
